Location: Bernay
(48.6766°N, 2.9386°E)
Time: 01:41:46
(UTC+00:00)

Cosmos 292 Rocket - Pass Details

Date: 12 January 2026
Orbit: 663 x 681 km, 74.0° (Epoch: 6 February)

Event Time Altitude Azimuth Distance (km) Brightness Sun altitude
Rises 18:24:28 0° 338° (NNW) 3,014 7.2 -20.5°
Reaches altitude 10° 18:26:48 10° 342° (NNW) 2,096 6.4 -20.9°
Maximum altitude 18:31:28 65° 64° (ENE) 732 3.6 -21.6°
Enters shadow 18:32:18 54° 115° (ESE) 810 3.8 -21.8°
